Theta_e
281 281 281 281 281 280 280 281 281 281 281 281 281 282 282 283 282 282 283 283 282 282 282 281 282 282 282 283 284 284 285 286 287 287 288 288 288 289 289 292 293 294 294
281 282 282 281 280 280 280 280 280 280 281 281 281 282 282 282 282 283 283 283 282 281 280 280 280 281 282 282 283 283 283 284 286 287 287 287 288 289 290 292 293 293 292
281 281 281 281 281 282 281 280 280 280 280 281 281 282 282 283 283 283 283 283 282 281 282 281 282 281 282 282 282 282 283 283 284 284 285 287 288 290 291 291 291 292 292
282 281 282 283 283 283 281 280 280 280 281 281 281 282 282 282 283 283 282 282 283 282 279 280 282 282 282 282 282 283 283 284 284 285 286 287 289 290 290 289 288 289 289
283 282 283 283 283 282 282 281 279 280 280 281 281 281 281 281 281 281 282 283 283 282 280 280 280 281 281 281 282 282 283 284 284 285 284 286 287 287 287 286 285 286 288
283 283 283 283 283 283 282 282 281 280 281 281 281 280 280 280 280 280 282 282 283 283 281 281 281 281 281 281 282 282 283 283 282 283 283 283 284 283 283 283 284 285 287
283 283 283 282 283 283 283 282 282 282 282 282 282 281 280 280 281 281 281 282 283 283 283 281 281 281 281 282 283 283 282 282 281 281 282 282 282 283 282 282 282 282 284
282 281 282 282 282 282 282 282 282 283 283 283 282 281 280 281 281 281 282 282 282 282 282 282 281 281 281 281 283 283 283 281 280 280 279 280 281 282 282 282 282 282 284
280 280 280 281 281 281 281 282 283 283 283 282 282 282 281 281 280 280 281 281 281 281 282 282 281 281 281 281 282 282 282 282 281 280 281 280 280 278 278 283 283 282 278
277 277 278 278 279 280 281 281 282 282 282 282 282 282 281 280 280 280 281 281 281 281 281 282 282 282 281 282 282 282 282 282 282 282 281 281 282 280 279 280 282 279 280
275 275 276 277 277 278 278 279 280 280 281 281 281 281 281 280 280 280 280 281 281 281 281 281 282 281 281 282 283 283 283 283 282 282 282 280 281 281 280 279 278 278 277
273 274 275 275 276 276 277 278 279 279 279 279 279 280 281 281 281 280 280 280 281 282 282 282 282 282 281 282 282 283 283 283 282 281 281 280 279 280 280 280 279 278 278
273 273 274 274 275 275 276 277 277 278 277 277 277 277 278 279 280 281 280 281 281 282 283 283 283 282 282 282 282 281 282 281 281 280 280 279 279 279 279 279 279 278 278
272 273 273 273 274 275 275 276 276 276 277 276 276 276 277 278 278 280 281 281 281 279 280 282 283 282 280 280 281 281 282 282 281 281 281 281 280 279 279 278 278 278 278
271 272 272 272 273 273 274 275 276 277 278 278 278 278 277 278 280 280 281 281 281 282 281 281 280 279 279 281 282 282 282 282 281 281 281 281 280 280 279 278 278 277 277
270 270 271 272 272 273 273 273 275 276 277 278 280 281 281 280 281 282 283 282 283 283 282 281 281 281 281 281 281 281 280 279 280 281 281 280 280 279 279 278 277 277 276
269 270 271 271 271 271 271 271 272 274 275 275 277 278 278 279 279 280 280 281 282 283 284 282 281 281 280 280 279 279 278 279 279 279 279 279 279 278 278 277 277 276 276
270 271 270 270 270 271 270 271 271 270 270 272 274 275 275 276 277 277 278 278 277 278 277 277 277 276 276 277 277 277 277 276 276 276 276 276 277 277 276 276 276 275 275
270 270 270 270 271 270 270 271 270 270 270 270 272 273 273 272 273 273 273 273 273 273 273 274 273 273 273 273 274 274 274 274 274 274 274 274 275 275 275 275 274 274 274
270 270 270 270 270 270 270 269 269 269 269 269 269 270 272 271 270 270 271 271 271 271 271 271 272 272 272 272 272 272 272 272 273 273 273 273 273 273 273 273 273 273 272
269 269 269 269 269 268 268 268 267 267 266 267 267 267 269 268 266 267 267 268 268 269 270 270 270 270 270 271 271 271 272 272 272 272 272 272 272 272 272 272 272 272 271
268 268 268 268 268 267 267 266 266 266 267 266 267 268 267 267 267 267 267 268 267 267 267 266 267 268 268 268 269 269 269 270 270 270 271 271 271 271 271 270 270 270 270
268 268 267 267 266 266 267 267 267 267 267 267 267 267 268 268 267 267 267 268 268 268 268 267 267 267 267 267 266 267 267 268 268 268 269 269 269 269 270 269 269 268 268
268 267 266 266 266 266 266 266 266 266 266 266 267 267 267 267 267 267 267 268 268 267 267 267 267 267 267 267 267 267 267 267 266 267 267 267 268 268 268 268 268 268 267
268 267 267 266 265 265 265 266 266 266 267 266 267 267 267 267 267 267 268 268 267 267 267 267 267 267 267 267 267 267 266 266 267 266 265 266 266 266 267 267 267 267 267
267 267 266 266 265 265 265 265 265 265 265 266 266 266 266 266 266 266 266 266 267 267 268 268 268 267 267 267 267 267 267 266 266 266 266 266 265 265 266 266 266 266 266
Wind_Speed
12 11 11 11 11 11 11 10 9 9 9 10 10 10 10 9 8 8 9 10 11 13 14 14 15 14 16 17 18 19 21 22 15 35 32 34 36 35 35 34 32 28 26
10 11 11 10 10 10 9 9 9 10 10 11 11 10 9 8 6 8 8 8 10 14 12 13 14 12 14 17 17 19 19 22 23 21 33 32 31 33 32 32 31 23 24
11 11 11 10 10 10 9 9 10 11 12 11 11 10 8 6 7 8 9 9 12 13 12 13 12 12 15 14 16 19 20 20 21 22 29 30 29 27 27 27 24 21 21
11 12 12 11 10 11 11 11 12 11 12 12 11 10 9 9 11 11 11 11 13 14 13 12 11 11 12 14 16 19 20 20 18 19 21 24 21 23 22 20 20 22 26
12 14 13 10 11 13 14 14 13 13 15 12 14 13 10 14 14 13 14 11 14 15 14 12 12 11 12 13 14 17 18 16 15 16 16 17 17 18 16 16 16 24 16
11 14 13 12 13 15 15 15 16 17 16 14 15 15 15 15 15 14 15 14 15 17 16 13 12 11 11 12 12 13 14 16 15 14 13 13 15 18 18 19 17 8 3
10 11 13 14 16 17 16 16 18 19 17 17 17 17 19 19 16 15 15 15 18 19 16 15 15 12 12 13 13 13 14 12 11 12 13 14 17 18 20 16 15 13 9
10 11 13 15 18 19 19 20 21 21 21 21 22 20 21 21 18 17 16 17 19 20 18 16 16 15 13 13 14 17 16 13 11 11 12 15 14 17 17 15 14 15 15
11 12 12 13 16 18 21 22 23 24 24 25 25 24 23 24 21 19 16 19 21 23 20 18 17 17 15 14 14 17 18 16 11 11 12 12 13 13 13 13 10 13 3
16 17 17 17 17 20 21 22 23 23 25 26 28 27 25 27 22 20 18 20 24 26 25 22 19 18 15 14 16 16 19 19 16 17 15 13 11 10 9 8 7 9 5
18 18 18 17 17 18 20 21 22 23 24 25 26 28 27 27 27 24 22 22 26 28 28 28 23 18 17 16 15 17 19 19 18 19 20 19 11 6 7 7 7 6 5
20 19 18 17 17 16 16 18 19 20 22 25 24 27 28 29 27 27 24 22 23 25 29 29 24 20 19 17 17 16 15 15 20 21 21 20 15 12 10 9 9 7 5
21 20 18 17 17 15 15 16 16 15 16 20 18 19 23 25 26 24 22 21 21 24 28 28 25 22 18 17 16 16 14 16 18 20 21 19 14 14 13 10 7 6 7
20 19 19 19 20 18 17 15 14 14 15 16 15 15 19 21 21 21 20 20 20 22 24 22 21 20 18 17 16 16 18 17 17 19 19 17 15 12 11 10 11 11 8
19 18 19 19 19 20 19 17 16 16 15 18 19 20 18 19 24 18 17 16 16 15 13 16 17 18 17 17 18 19 17 16 18 19 20 18 16 15 13 10 11 10 7
19 18 18 18 18 17 18 20 15 12 14 14 15 14 15 14 16 16 18 23 19 17 15 18 17 18 20 21 17 14 14 17 19 19 18 18 18 17 15 12 10 9 9
16 18 19 17 17 17 17 15 16 21 14 12 13 12 12 13 14 12 12 11 6 5 11 12 11 10 10 9 12 14 16 13 11 10 11 14 16 17 16 14 13 11 11
14 13 14 16 16 16 16 15 14 14 16 19 14 13 14 14 13 13 13 11 10 9 9 9 9 9 9 9 10 11 11 13 14 14 15 15 14 14 15 15 15 14 13
13 14 14 13 12 12 12 12 12 13 14 15 16 15 19 17 11 10 10 11 10 9 8 8 8 8 9 9 10 11 11 12 12 13 13 13 14 14 15 13 8 5 4
12 11 12 12 11 11 12 13 13 14 14 14 15 15 18 20 18 16 12 11 9 8 8 8 8 8 7 8 8 8 9 9 8 8 8 7 5 5 5 6 5 5 4
13 13 12 11 11 11 11 11 12 13 14 15 15 14 13 15 16 16 16 13 12 12 12 12 12 11 10 9 8 7 7 6 6 6 6 6 6 6 6 5 5 5 5
12 13 13 13 12 12 12 13 14 15 16 18 20 20 18 18 18 18 18 17 16 15 15 16 17 16 14 13 13 13 13 11 8 6 5 6 7 7 7 6 5 7 8
13 14 14 13 13 14 16 16 18 19 21 22 23 24 24 24 23 23 23 22 20 19 18 19 21 21 19 18 17 17 17 16 12 12 11 12 13 12 11 11 9 8 8
13 14 16 16 17 18 19 21 22 23 24 26 27 27 27 28 28 28 27 26 24 23 21 21 21 23 23 22 21 20 21 20 18 16 14 14 13 12 11 11 10 9 9
16 16 17 18 20 21 23 24 26 27 28 29 30 31 31 32 32 31 30 28 27 27 26 23 23 24 24 23 23 22 21 21 21 19 18 17 16 15 14 13 11 11 10
18 18 20 21 22 23 24 26 29 30 31 33 33 34 34 34 34 34 33 31 30 29 28 26 23 22 22 22 22 22 22 21 21 21 20 20 20 19 18 17 15 14 13
Wind_Direction
263 263 264 268 269 254 253 265 273 274 270 271 273 271 269 278 283 293 302 309 308 309 304 288 283 283 286 291 289 283 277 274 276 291 295 301 303 301 302 310 304 297 293
263 262 261 264 263 254 256 273 278 274 267 266 262 261 268 271 282 277 296 304 313 307 299 295 291 302 297 297 294 289 281 284 281 292 300 305 302 304 305 302 302 302 299
259 257 260 265 269 278 281 275 273 269 264 259 256 256 258 262 258 266 274 292 306 322 321 308 310 302 300 307 308 304 306 300 292 290 297 303 302 308 315 316 317 327 320
265 264 270 276 281 285 283 269 270 260 257 254 253 254 251 259 263 270 279 283 295 305 307 316 318 304 303 311 317 311 309 300 301 294 298 304 308 317 322 324 329 327 325
270 268 273 282 277 275 273 268 266 259 251 250 252 256 259 267 273 277 276 280 296 302 300 297 295 298 302 302 297 301 308 310 310 314 313 314 322 330 333 324 317 321 321
290 278 282 279 276 273 272 267 262 255 254 256 259 269 272 269 272 272 272 275 286 292 297 293 290 293 299 299 303 296 295 293 304 315 317 321 326 326 331 321 315 329 322
304 290 285 283 278 275 273 268 263 261 263 260 264 268 271 273 272 273 271 267 270 280 288 289 289 289 290 299 304 309 309 298 288 295 308 320 320 333 337 330 340 327 303
326 313 304 294 286 283 278 270 268 267 267 268 268 269 272 273 277 275 269 268 270 274 279 283 281 285 283 289 302 305 315 317 301 309 308 313 315 321 327 326 325 331 325
345 333 322 311 299 290 281 276 274 273 271 269 271 273 273 275 277 275 269 270 272 274 275 273 273 276 281 282 281 290 302 313 307 310 312 313 314 319 330 337 352 357 331
336 327 322 314 299 291 287 284 282 279 276 275 275 274 274 275 275 273 270 272 274 276 277 271 265 268 273 273 274 284 292 303 313 317 320 327 325 323 331 344 340 342 318
329 326 323 319 312 301 294 288 285 282 278 275 274 275 274 273 274 273 272 268 268 273 275 276 272 268 267 267 266 270 281 299 303 298 305 314 319 317 333 349 346 341 331
332 331 330 328 324 317 309 300 293 286 280 278 278 280 279 277 275 274 272 263 261 259 265 273 277 279 277 271 270 271 279 284 286 291 295 303 305 306 311 318 325 326 314
335 336 339 339 339 334 324 318 310 304 290 285 281 278 284 287 284 279 274 267 262 256 261 267 274 276 275 272 266 271 282 287 287 286 290 294 298 301 308 310 314 316 317
338 343 346 345 344 346 340 333 323 313 303 292 280 275 286 294 293 296 287 277 268 260 258 254 255 260 265 266 269 273 281 285 283 280 282 289 295 297 305 311 317 326 328
342 344 345 345 345 343 343 335 325 320 310 289 287 287 277 280 295 292 290 282 279 275 270 260 259 259 259 265 271 276 278 276 276 277 272 271 275 282 291 299 305 312 306
341 341 343 341 340 336 337 336 345 328 321 319 310 314 324 308 304 305 301 271 266 261 245 248 253 261 262 269 270 275 283 283 279 278 267 264 261 263 268 276 282 281 285
341 343 346 345 342 342 344 340 335 346 356 354 353 343 340 335 337 335 331 327 27 280 262 251 249 248 249 258 272 277 282 285 274 281 280 274 270 266 260 253 259 265 271
343 346 346 344 348 352 353 354 357 360 353 357 7 4 358 350 342 338 334 317 326 319 319 317 310 304 293 282 275 270 271 273 276 276 275 274 274 268 262 255 257 254 260
341 345 345 343 346 352 360 9 14 14 13 6 5 15 9 2 4 11 11 28 18 14 2 349 337 326 315 303 295 288 282 280 280 278 273 270 266 264 264 267 257 239 234
333 340 337 339 343 349 357 0 3 4 1 0 358 356 355 348 359 357 358 356 356 352 342 333 324 314 305 301 293 288 285 280 277 272 272 259 243 241 239 221 216 216 211
327 333 333 332 334 342 344 348 348 345 342 339 337 339 335 331 331 330 328 327 320 312 308 304 301 299 299 300 301 293 276 267 263 267 257 243 234 225 217 218 216 208 206
319 324 325 325 327 329 331 332 330 328 326 324 324 325 326 320 318 314 312 309 307 301 298 294 291 289 286 284 281 277 273 270 266 263 255 231 216 207 203 206 228 237 231
306 311 314 314 313 316 316 317 317 317 316 315 316 316 317 315 313 309 305 304 301 295 291 284 283 282 280 276 271 270 269 267 261 251 245 242 239 237 240 243 236 219 214
298 302 305 306 307 308 310 310 312 313 313 311 311 311 311 311 310 307 306 304 301 296 291 285 280 279 278 274 270 266 264 263 259 254 249 241 235 229 226 219 212 209 198
291 296 298 300 301 303 305 306 307 308 309 308 308 308 309 309 307 306 306 304 301 297 294 290 284 280 276 273 269 266 262 258 256 253 248 244 241 235 227 222 218 214 208
285 291 294 296 296 297 300 301 303 305 306 306 306 305 305 305 304 304 304 303 301 299 296 293 289 283 278 274 269 264 260 256 249 247 246 242 239 236 229 228 227 224 221